When you browse on this site, cookies collect data to enhance your experience and personalize the content and advertising you see.
Visit our Privacy Policy to learn more. By continuing to use the site, you agree to this use of cookies and data.
  • Em Portugal
  • Lista de países
  • Para 7 dias
  • Temperatura da água
  • Mapa do tempo
  • Widgets de tempo
  • user-avatar
    Iniciar Sessão

    Previsão horária em Kulikovka

    Hoje, 17 Setembro, Terça-feira

    Tempo Temperatura Precipitação Vento Pressão Humidade
    00:00 +8°C° 0 mm 4 m/s 735 mmHg 93%
    01:00 +8°C° 0 mm 4 m/s 735 mmHg 94%
    02:00 +7°C° 0 mm 4 m/s 735 mmHg 94%
    03:00 +7°C° 0 mm 4 m/s 735 mmHg 95%
    04:00 +7°C° 0 mm 5 m/s 735 mmHg 95%
    05:00 +7°C° 0 mm 5 m/s 735 mmHg 95%
    06:00 +7°C° 0 mm 5 m/s 735 mmHg 95%
    07:00 +8°C° 0 mm 5 m/s 735 mmHg 91%
    08:00 +10°C° 0 mm 6 m/s 735 mmHg 86%
    09:00 +11°C° 0 mm 6 m/s 735 mmHg 82%
    10:00 +12°C° 0.4 mm 7 m/s 734 mmHg 78%
    11:00 +12°C° 0.4 mm 7 m/s 734 mmHg 73%
    12:00 +14°C° 0.4 mm 7 m/s 734 mmHg 69%
    13:00 +14°C° 0.4 mm 7 m/s 734 mmHg 68%
    14:00 +14°C° 0.4 mm 6 m/s 734 mmHg 67%
    15:00 +14°C° 0.4 mm 6 m/s 733 mmHg 66%
    16:00 +13°C° 0.2 mm 5 m/s 733 mmHg 70%
    17:00 +12°C° 0.2 mm 5 m/s 733 mmHg 74%
    18:00 +11°C° 0.2 mm 4 m/s 733 mmHg 78%
    19:00 +10°C° 0 mm 4 m/s 734 mmHg 79%
    20:00 +8°C° 0 mm 4 m/s 734 mmHg 80%
    21:00 +7°C° 0 mm 4 m/s 735 mmHg 81%
    22:00 +7°C° 0 mm 4 m/s 734 mmHg 83%
    23:00 +7°C° 0 mm 3 m/s 734 mmHg 84%

    Amanhã, 18 Setembro, Quarta-feira

    Tempo Temperatura Precipitação Vento Pressão Humidade
    00:00 +7°C° 0 mm 3 m/s 734 mmHg 86%
    01:00 +5°C° 0 mm 3 m/s 735 mmHg 87%
    02:00 +5°C° 0 mm 3 m/s 735 mmHg 88%
    03:00 +5°C° 0 mm 3 m/s 735 mmHg 89%
    04:00 +5°C° 0 mm 3 m/s 735 mmHg 90%
    05:00 +5°C° 0 mm 3 m/s 735 mmHg 90%
    06:00 +5°C° 0 mm 3 m/s 735 mmHg 91%
    07:00 +6°C° 0 mm 4 m/s 735 mmHg 85%
    08:00 +8°C° 0 mm 4 m/s 735 mmHg 79%
    09:00 +9°C° 0 mm 5 m/s 735 mmHg 73%
    10:00 +10°C° 0.1 mm 5 m/s 735 mmHg 67%
    11:00 +11°C° 0.1 mm 6 m/s 735 mmHg 62%
    12:00 +14°C° 0.1 mm 6 m/s 735 mmHg 56%
    13:00 +14°C° 0.1 mm 6 m/s 735 mmHg 54%
    14:00 +14°C° 0.1 mm 5 m/s 734 mmHg 53%
    15:00 +14°C° 0.1 mm 5 m/s 734 mmHg 52%
    16:00 +13°C° 0 mm 4 m/s 734 mmHg 56%
    17:00 +12°C° 0 mm 3 m/s 733 mmHg 61%
    18:00 +12°C° 0 mm 2 m/s 733 mmHg 65%
    19:00 +10°C° 0.2 mm 2 m/s 732 mmHg 73%
    20:00 +10°C° 0.2 mm 2 m/s 731 mmHg 81%
    21:00 +9°C° 0.2 mm 2 m/s 730 mmHg 88%
    22:00 +9°C° 4.4 mm 3 m/s 729 mmHg 90%
    23:00 +8°C° 4.4 mm 3 m/s 728 mmHg 91%

    Depois de amanhã, 19 Setembro, Quinta-feira

    Tempo Temperatura Precipitação Vento Pressão Humidade
    00:00 +7°C° 4.4 mm 4 m/s 727 mmHg 93%
    01:00 +7°C° 1.8 mm 4 m/s 727 mmHg 93%
    02:00 +7°C° 1.8 mm 4 m/s 727 mmHg 93%
    03:00 +6°C° 1.8 mm 4 m/s 728 mmHg 93%
    04:00 +7°C° 0.3 mm 5 m/s 729 mmHg 92%
    05:00 +7°C° 0.3 mm 6 m/s 730 mmHg 92%
    06:00 +7°C° 0.3 mm 6 m/s 731 mmHg 92%
    07:00 +7°C° 0 mm 6 m/s 732 mmHg 90%
    08:00 +7°C° 0 mm 6 m/s 734 mmHg 89%
    09:00 +8°C° 0 mm 6 m/s 735 mmHg 87%
    10:00 +8°C° 0 mm 6 m/s 735 mmHg 85%
    11:00 +8°C° 0 mm 6 m/s 736 mmHg 83%
    12:00 +9°C° 0 mm 6 m/s 737 mmHg 81%
    13:00 +9°C° 0.2 mm 6 m/s 738 mmHg 79%
    14:00 +9°C° 0.2 mm 6 m/s 738 mmHg 78%
    15:00 +10°C° 0.2 mm 6 m/s 739 mmHg 76%
    16:00 +9°C° 0 mm 5 m/s 740 mmHg 79%
    17:00 +8°C° 0 mm 4 m/s 740 mmHg 82%
    18:00 +8°C° 0 mm 3 m/s 741 mmHg 86%
    19:00 +7°C° 0.1 mm 3 m/s 741 mmHg 87%
    20:00 +7°C° 0.1 mm 2 m/s 741 mmHg 89%
    21:00 +6°C° 0.1 mm 2 m/s 742 mmHg 90%
    22:00 +7°C° 0 mm 2 m/s 742 mmHg 90%
    23:00 +8°C° 0 mm 1 m/s 742 mmHg 90%

    20 Setembro, Sexta-feira

    Tempo Temperatura Precipitação Vento Pressão Humidade
    00:00 +8°C° 0 mm 1 m/s 743 mmHg 89%
    01:00 +7°C° 0 mm 1 m/s 743 mmHg 90%
    02:00 +7°C° 0 mm 1 m/s 743 mmHg 91%
    03:00 +7°C° 0 mm 1 m/s 743 mmHg 91%
    04:00 +6°C° 0 mm 1 m/s 743 mmHg 92%
    05:00 +6°C° 0 mm 1 m/s 743 mmHg 93%
    06:00 +6°C° 0 mm 1 m/s 743 mmHg 94%
    07:00 +6°C° 0.1 mm 2 m/s 743 mmHg 90%
    08:00 +7°C° 0.1 mm 2 m/s 743 mmHg 87%
    09:00 +8°C° 0.1 mm 2 m/s 743 mmHg 83%
    10:00 +9°C° 0.1 mm 3 m/s 743 mmHg 77%
    11:00 +10°C° 0.1 mm 3 m/s 743 mmHg 71%
    12:00 +11°C° 0.1 mm 3 m/s 743 mmHg 64%
    13:00 +11°C° 0.2 mm 3 m/s 742 mmHg 64%
    14:00 +11°C° 0.2 mm 3 m/s 742 mmHg 65%
    15:00 +11°C° 0.2 mm 3 m/s 742 mmHg 65%
    16:00 +10°C° 0.1 mm 3 m/s 742 mmHg 70%
    17:00 +9°C° 0.1 mm 2 m/s 742 mmHg 75%
    18:00 +8°C° 0.1 mm 2 m/s 742 mmHg 80%
    19:00 +8°C° 0 mm 2 m/s 742 mmHg 81%
    20:00 +7°C° 0 mm 2 m/s 742 mmHg 83%
    21:00 +8°C° 0 mm 1 m/s 742 mmHg 84%
    22:00 +6°C° 0 mm 2 m/s 742 mmHg 86%
    23:00 +6°C° 0 mm 2 m/s 742 mmHg 89%

    21 Setembro, Sábado

    Tempo Temperatura Precipitação Vento Pressão Humidade
    00:00 +5°C° 0 mm 2 m/s 742 mmHg 92%
    01:00 +5°C° 0 mm 2 m/s 742 mmHg 93%
    02:00 +5°C° 0 mm 2 m/s 742 mmHg 94%
    03:00 +3°C° 0 mm 3 m/s 742 mmHg 96%
    04:00 +3°C° 0 mm 3 m/s 742 mmHg 95%
    05:00 +3°C° 0 mm 3 m/s 742 mmHg 95%
    06:00 +3°C° 0 mm 3 m/s 742 mmHg 94%
    07:00 +4°C° 0 mm 3 m/s 742 mmHg 91%
    08:00 +4°C° 0 mm 4 m/s 742 mmHg 87%
    09:00 +5°C° 0 mm 4 m/s 743 mmHg 84%
    10:00 +5°C° 0 mm 4 m/s 743 mmHg 80%
    11:00 +5°C° 0 mm 4 m/s 742 mmHg 76%
    12:00 +6°C° 0 mm 4 m/s 742 mmHg 73%
    13:00 +6°C° 0.1 mm 4 m/s 742 mmHg 70%
    14:00 +7°C° 0.1 mm 4 m/s 742 mmHg 67%
    15:00 +7°C° 0.1 mm 4 m/s 742 mmHg 65%
    16:00 +6°C° 0.1 mm 4 m/s 742 mmHg 68%
    17:00 +6°C° 0.1 mm 4 m/s 743 mmHg 71%
    18:00 +5°C° 0.1 mm 3 m/s 743 mmHg 75%
    19:00 +4°C° 0 mm 4 m/s 743 mmHg 75%
    20:00 +4°C° 0 mm 4 m/s 743 mmHg 76%
    21:00 +3°C° 0 mm 4 m/s 744 mmHg 76%
    22:00 +1°C° 0 mm 4 m/s 744 mmHg 78%
    23:00 +1°C° 0 mm 4 m/s 744 mmHg 79%

    22 Setembro, Domingo

    Tempo Temperatura Precipitação Vento Pressão Humidade
    00:00 0°C° 0 mm 4 m/s 744 mmHg 80%
    01:00 0°C° 0 mm 4 m/s 744 mmHg 82%
    02:00 0°C° 0 mm 3 m/s 744 mmHg 83%
    03:00 0°C° 0 mm 3 m/s 745 mmHg 84%
    04:00 -1°C° 0 mm 3 m/s 745 mmHg 86%
    05:00 -1°C° 0 mm 3 m/s 745 mmHg 88%
    06:00 -1°C° 0 mm 3 m/s 745 mmHg 90%
    07:00 -1°C° 0 mm 4 m/s 746 mmHg 83%
    08:00 +1°C° 0 mm 4 m/s 746 mmHg 77%
    09:00 +3°C° 0 mm 4 m/s 746 mmHg 71%
    10:00 +3°C° 0.1 mm 5 m/s 746 mmHg 66%
    11:00 +5°C° 0.1 mm 5 m/s 746 mmHg 60%
    12:00 +6°C° 0.1 mm 5 m/s 746 mmHg 55%
    13:00 +7°C° 0.1 mm 5 m/s 746 mmHg 54%
    14:00 +7°C° 0.1 mm 5 m/s 746 mmHg 54%
    15:00 +7°C° 0.1 mm 5 m/s 746 mmHg 53%
    16:00 +6°C° 0.1 mm 4 m/s 746 mmHg 59%
    17:00 +5°C° 0.1 mm 3 m/s 746 mmHg 66%
    18:00 +4°C° 0.1 mm 3 m/s 746 mmHg 72%
    19:00 +3°C° 0.1 mm 3 m/s 746 mmHg 75%
    20:00 +3°C° 0.1 mm 3 m/s 747 mmHg 78%
    21:00 +2°C° 0.1 mm 3 m/s 747 mmHg 81%
    22:00 +2°C° 0 mm 3 m/s 747 mmHg 82%
    23:00 +2°C° 0 mm 3 m/s 747 mmHg 83%
    Mostrar mais